STARLINK-5226, 54056

Orbit data source: Space-Track

STARLINK-5226, 54056 is a payload satellite owned by SpaceX/Seattle (US) in LEO that was launched on Thu, 20 Oct 2022 UTC via an FALCON 9 launch vehicle from the Air Force Eastern Test Range (AFETR). Payload-class satellites include a variety of spacecraft equipped with specific instruments for various scientific and technological missions. These include communications satellites like Starlink; space stations such as the ISS; scientific satellites like the Hubble; Earth observation satellites from companies like Planet Labs, Umbra, and HawkEye 360; GPS; miniature CubeSats for education and research; and military/defense satellites.

Loading next visibility...
Identifier
54056, 2022-136F
Orbit
LEO
Country
Flag of USUS
Related business
Manufacturer
SpaceX/Seattle
Mission
Operational Commercial Communications
Bus & Motor
STARLINK, Unknown motor
Mass
305 kg wet, ~290 kg dry
Launch date (UTC)
2022-10-20 (3 years ago)
Launch vehicle
FALCON 9
Launch site
Air Force Eastern Test Range (AFETR)
Object type
Payload
Rocket body
Debris
Shape & HBR
Box + 1 Pan, 10.1 m
Radar Cross Section
13.562 m², Large (>1 m²)

Expand to show TLE details & history
Last TLE update: 7 hours ago

TLE from 7 hours ago
0 STARLINK-5226
1 54056U 22136F   25303.75115416  .00000928  00000-0  76414-4 0  9992
2 54056  53.2157 207.0224 0001271  83.6308 276.4829 15.08838230167236
Epoch: 2025-10-30T18:01Z
TLE epoch observation values (Epoch: 2025-10-30T18:01:39.719Z)
Latitude
-0.00001°
Longitude
-102.69855°
Altitude
540.547 km
Speed
7.593 km/s
True Right ascension
13h 48m 05s
True Declination
0° 00' 00"
Sunlit
Object was in daylight at epoch
Visualization orbit readout
Latitude
Unknown
Longitude
Unknown
Altitude
Unknown
Speed
Unknown
Apparent Right ascension
Unknown
Apparent Declination
Unknown
Sunlit
N/A
Visualization observer readout
Local Sidereal Time
20:32:20
Azimuth
Unknown
Elevation
Unknown
Doppler factor
Unknown
Orbital elements
Apogee altitude
540.873 km
Perigee altitude
539.115 km
Semi-major axis
6,918.131 km
Eccentricity
0.00013
Inclination
53.2157°
RAAN
207.0224°
Arg. of periapsis
83.6308°
True anomaly
276.46843°
Mean anomaly
276.4829°
Eccentric anomaly
276.47566°
Mean motion
3.7719 °/min
Orbital period
95.44 mins
BSTAR
0.000076414
Loading maneuver chart data...
Computing Atmospheric mass density...
Loading historical data...
Loading historical data...
Loading historical data...
Loading historical data...
Loading historical data...
Loading historical data...
Loading historical data...

Documentation

Showing up to 5 results
|